星链-4617 (STARLINK-4617 )

导读

STARLINK-4617是美国太空探索技术公司(SpaceX)星链(Starlink)星座中的一颗卫星,于2022年8月31日在美国发射升空,属于星链低轨互联网星座部署批次。星链项目旨在构建全球覆盖的卫星互联网星座,该卫星入轨后承担为全球偏远地区、海上、航空等场景提供宽带互联网接入服务的任务,是星链规模化组网进程中的组成单元。

基本信息
目录编号:
53675
目录名称:
STARLINK-4617
国际标识:
2022-105AD
轨道中心:
EARTH
卫星名称:
星链-4617
卫星全名:
星链-4617 (STARLINK-4617 )
卫星状态:
在轨 (已飞行1465 天)
发射日期:
2022-08-31 UTC
国别 :
美国 (US)
星等 :
--
轨道信息
数据来源 国际轨道数据
星历时间: 2026-09-04T10:46:13+0800
5小时前
查看轨道信息
半长轴: 6843.707km
偏心率: 0.0001718
轨道倾角: 97.285°
近地点辐角 90.823°
升交点赤经 124.138°
平近点角 269.321°
近地点: 464.394km
远地点: 466.746km
周期: 93.907分钟
每日圈数: 15.334361
详细信息
固有亮度:
5
最大亮度:
2.5
卫星平台:
Starlink v1.5
覆盖范围:
全球
运营商:
太空探索技术公司
运营商所在国:
美国
制造商(研发单位):
太空探索技术公司
制造商所在国:
美国
使用方式:
暂无
卫星简介
星链(Starlink)计划是由太空探索技术公司(SpaceX)提出的一个巨型低轨卫星互联网星座项目,计划在2019年至2024年间在太空搭建由约1.2万颗卫星组成的“星链”网络,其中1584颗将部署在地球上空550千米处的近地轨道,并从2020年开始工作。该卫星仍在工作。
2D轨道图
3D轨道图
轨道高度分析图
轨道倾角分析图
轨道综合分析图
查看轨道综合分析图
交会数据列表
事件ID 空间交会对象 最接近时刻(TCA) 交会距离 交会风险概率(CRP) 交会风险指数(CRI) 操作
CDM_260906-000305-367505-721721
2026-09-06T
00:03:30+0000
1.826 km
极远距离
3.707135E-6 低风险 0.46
CDM_260905-020205-177005-367521
2026-09-05T
02:02:05+0000
2.481 km
极远距离
1.649399E-6 低风险 0.39
CDM_260904-094505-367505-478321
2026-09-04T
09:45:00+0000
2.901 km
极远距离
1.391936E-6 低风险 0.38
CDM_260905-042205-177005-367521
2026-09-05T
04:22:58+0000
2.759 km
极远距离
1.387989E-6 低风险 0.38